This demonstration page uses our WeatherBlox Daily Observations layout. Learn more.

Left ArrowRight Arrow

38.20091, -84.87328

Hourly Observations for April 12, 2016

Temp ( °F °C ) Dew Point ( °F °C ) Humidity (%) Winds ( mph kmh ) Pressure ( in mb ) Visibility ( mi km ) Precip ( " mm )
12:53 am 00:53 Cloudy 47 8.3 42 5.6 83 83 NW 8 13 30.09 1019 10 16 0.00 0.00
1:53 am 01:53 Mostly Clear 44 6.7 40 4.4 85 85 NNW 5 7 30.11 1020 10 16 0.00 0.00
2:53 am 02:53 Clear 42 5.6 38 3.3 85 85 WNW 3 6 30.12 1020 10 16 0.00 0.00
3:53 am 03:53 Clear 40 4.4 36 2.2 86 86 NW 3 6 30.14 1021 10 16 0.00 0.00
4:53 am 04:53 Clear 38 3.3 34 1.1 86 86 Calm 30.15 1021 10 16 0.00 0.00
5:53 am 05:53 Clear 36 2.2 33 0.6 89 89 NNW 5 7 30.16 1021 10 16 0.00 0.00
6:53 am 06:53 Clear 35 1.7 31 -0.6 85 85 NNW 3 6 30.19 1023 10 16 0.00 0.00
7:53 am 07:53 Sunny 36 2.2 33 0.6 89 89 Calm 30.23 1024 10 16 0.00 0.00
8:53 am 08:53 Sunny 42 5.6 34 1.1 73 73 VRB 6 9 30.26 1025 10 16 0.00 0.00
9:53 am 09:53 Sunny 46 7.8 34 1.1 63 63 NNE 9 15 30.28 1026 10 16 0.00 0.00
10:53 am 10:53 Sunny 46 7.8 32 0 58 58 NNE 10 17 30.30 1026 10 16 0.00 0.00
11:53 am 11:53 Partly Cloudy 50 10 32 0 50 50 NE 8 13 30.31 1026 10 16 0.00 0.00
12:53 pm 12:53 Mostly Cloudy 51 10.6 31 -0.6 46 46 VRB 5 7 30.31 1026 10 16 0.00 0.00
1:53 pm 13:53 Mostly Sunny 53 11.7 31 -0.6 43 43 NNW 7 11 30.30 1026 10 16 0.00 0.00
2:53 pm 14:53 Sunny 54 12.2 29 -1.7 38 38 NE 9 15 30.29 1026 10 16 0.00 0.00
3:53 pm 15:53 Sunny 55 12.8 29 -1.7 37 37 VRB 5 7 30.27 1025 10 16 0.00 0.00
4:53 pm 16:53 Sunny 56 13.3 27 -2.8 33 33 NE 6 9 30.27 1025 10 16 0.00 0.00
5:53 pm 17:53 Sunny 57 13.9 25 -3.9 29 29 VRB 6 9 30.27 1025 10 16 0.00 0.00
6:53 pm 18:53 Sunny 56 13.3 24 -4.4 29 29 NNE 7 11 30.28 1025 10 16 0.00 0.00
7:53 pm 19:53 Sunny 54 12.2 25 -3.9 33 33 NNE 6 9 30.28 1025 10 16 0.00 0.00
8:53 pm 20:53 Clear 51 10.6 26 -3.3 38 38 NNE 3 6 30.28 1025 10 16 0.00 0.00
9:53 pm 21:53 Clear 45 7.2 30 -1.1 56 56 NE 3 6 30.29 1026 10 16 0.00 0.00
10:53 pm 22:53 Clear 46 7.8 27 -2.8 47 47 NE 5 7 30.30 1026 10 16 0.00 0.00
11:53 pm 23:53 Clear 41 5 29 -1.7 62 62 N 3 6 30.30 1026 10 16 0.00 0.00

Powered by AerisWeather